,,PA_Meas_PMT16A,,PR_Meas_QMR101_102,,RH_Meas_QMH101,,SR_Meas_QMS101,,TA_Meas_QMH101,,GenWind,,GenWind,
time,status,PA,status,PR,status,RH,status,SR,status,TA,status,DirAvg,status,SpdAvg,
2011-06-19, 00:00:05,VALID,917.695,VALID,0,VALID,95.2012,VALID,0,VALID,20.4423,VALID,315,VALID,0.158203,
2011-06-19, 00:01:05,VALID,917.661,VALID,0,VALID,95.2775,VALID,0,VALID,20.4228,VALID,315,VALID,0.232812,
2011-06-19, 00:02:05,VALID,917.654,VALID,0,VALID,95.3689,VALID,0,VALID,20.4439,VALID,315,VALID,0.283984,
2011-06-19, 00:03:05,VALID,917.636,VALID,0,VALID,95.2851,VALID,0,VALID,20.4634,VALID,315,VALID,0.0425781,
2011-06-19, 00:04:05,VALID,917.628,VALID,0,VALID,95.2927,VALID,0,VALID,20.4423,VALID,315,VALID,0.126172,
2011-06-19, 00:05:05,VALID,917.592,VALID,0,VALID,95.3232,VALID,0,VALID,20.4634,VALID,315,VALID,0,
2011-06-19, 00:06:05,VALID,917.578,VALID,0,VALID,95.2698,VALID,0,VALID,20.4618,VALID,315,VALID,0,
2011-06-19, 00:07:05,VALID,917.545,VALID,0,VALID,95.2393,VALID,0,VALID,20.4423,VALID,315,VALID,0.201172,
2011-06-19, 00:08:05,VALID,917.539,VALID,0,VALID,95.3918,VALID,0,VALID,20.4813,VALID,315,VALID,0.309766,
2011-06-19, 00:09:05,VALID,917.547,VALID,0,VALID,95.3689,VALID,0,VALID,20.4423,VALID,314,VALID,0,
2011-06-19, 00:10:05,VALID,917.552,VALID,0,VALID,95.3156,VALID,0,VALID,20.4228,VALID,315,VALID,0,
2011-06-19, 00:11:05,VALID,917.542,VALID,0,VALID,95.3842,VALID,0,VALID,20.4228,VALID,315,VALID,0,
2011-06-19, 00:12:05,VALID,917.583,VALID,0,VALID,95.4299,VALID,0,VALID,20.4228,VALID,315,VALID,0,
2011-06-19, 00:13:05,VALID,917.589,VALID,0,VALID,95.3003,VALID,0,VALID,20.4033,VALID,315,VALID,0,
2011-06-19, 00:14:05,VALID,917.608,VALID,0,VALID,95.1097,VALID,0,VALID,20.3253,VALID,315,VALID,0.191797,
2011-06-19, 00:15:05,VALID,917.593,VALID,0,VALID,95.1479,VALID,0,VALID,20.3253,VALID,315,VALID,0.201953,
2011-06-19, 00:16:05,VALID,917.608,VALID,0,VALID,95.1631,VALID,0,VALID,20.3253,VALID,315,VALID,0.173828,
2011-06-19, 00:17:05,VALID,917.577,VALID,0,VALID,95.4147,VALID,0,VALID,20.3253,VALID,315,VALID,0.524219,
2011-06-19, 00:18:05,VALID,917.569,VALID,0,VALID,95.5138,VALID,0,VALID,20.3659,VALID,315,VALID,0.383984,
2011-06-19, 00:19:05,VALID,917.554,VALID,0,VALID,95.5595,VALID,0,VALID,20.3464,VALID,315,VALID,0.3125,
2011-06-19, 00:20:05,VALID,917.529,VALID,0,VALID,95.529,VALID,0,VALID,20.3074,VALID,315,VALID,0.282031,
2011-06-19, 00:21:05,VALID,917.497,VALID,0,VALID,95.4757,VALID,0,VALID,20.2879,VALID,315,VALID,0.499609,
2011-06-19, 00:22:05,VALID,917.496,VALID,0,VALID,95.5062,VALID,0,VALID,20.2293,VALID,315,VALID,0.25,
2011-06-19, 00:23:05,VALID,917.506,VALID,0,VALID,95.6281,VALID,0,VALID,20.2083,VALID,315,VALID,0.207031,
2011-06-19, 00:24:05,VALID,917.538,VALID,0,VALID,95.6586,VALID,0,VALID,20.2489,VALID,315,VALID,0,
2011-06-19, 00:25:05,VALID,917.513,VALID,0,VALID,95.6586,VALID,0,VALID,20.2293,VALID,315,VALID,0,
2011-06-19, 00:26:05,VALID,917.502,VALID,0,VALID,95.5062,VALID,0,VALID,20.1513,VALID,315,VALID,0,
2011-06-19, 00:27:05,VALID,917.5,VALID,0,VALID,94.82,VALID,0,VALID,19.9758,VALID,315,VALID,0.534375,
2011-06-19, 00:28:05,VALID,917.531,VALID,0,VALID,94.3703,VALID,0,VALID,19.8588,VALID,315,VALID,0.809375,
2011-06-19, 00:29:05,VALID,917.509,VALID,0,VALID,94.9878,VALID,0,VALID,19.8978,VALID,315,VALID,0.915625,
2011-06-19, 00:30:05,VALID,917.504,VALID,0,VALID,95.6129,VALID,0,VALID,20.0148,VALID,315,VALID,0.865234,
2011-06-19, 00:31:05,VALID,917.492,VALID,0,VALID,95.6586,VALID,0,VALID,19.9353,VALID,315,VALID,0.858984,
2011-06-19, 00:32:05,VALID,917.473,VALID,0,VALID,95.9178,VALID,0,VALID,19.9758,VALID,315,VALID,0.784766,
2011-06-19, 00:33:05,VALID,917.45,VALID,0,VALID,96.1008,VALID,0,VALID,20.0133,VALID,315,VALID,0.618359,
2011-06-19, 00:34:05,VALID,917.486,VALID,0,VALID,96.1999,VALID,0.107441,VALID,20.0328,VALID,315,VALID,0.405469,
2011-06-19, 00:35:05,VALID,917.466,VALID,0,VALID,96.2075,VALID,0,VALID,20.0538,VALID,315,VALID,0.337109,
2011-06-19, 00:36:05,VALID,917.49,VALID,0,VALID,96.177,VALID,0,VALID,19.9953,VALID,315,VALID,0.3375,
2011-06-19, 00:37:05,VALID,917.46,VALID,0,VALID,96.1008,VALID,0,VALID,19.9368,VALID,315,VALID,0.345703,
2011-06-19, 00:38:05,VALID,917.434,VALID,0,VALID,96.2304,VALID,0,VALID,19.9173,VALID,315,VALID,0.541406,
2011-06-19, 00:39:05,VALID,917.436,VALID,0,VALID,96.2914,VALID,0,VALID,19.9173,VALID,315,VALID,0.442969,
2011-06-19, 00:40:05,VALID,917.412,VALID,0,VALID,96.4362,VALID,0,VALID,19.9563,VALID,315,VALID,0.394141,
2011-06-19, 00:41:05,VALID,917.407,VALID,0,VALID,96.4515,VALID,0,VALID,19.9563,VALID,315,VALID,0.235156,
2011-06-19, 00:42:05,VALID,917.384,VALID,0,VALID,96.421,VALID,0,VALID,19.9368,VALID,315,VALID,0.186719,
2011-06-19, 00:43:05,VALID,917.361,VALID,0,VALID,96.3676,VALID,0,VALID,19.8978,VALID,315,VALID,0.271875,
2011-06-19, 00:44:05,VALID,917.344,VALID,0,VALID,96.3752,VALID,0,VALID,19.8588,VALID,315,VALID,0.428125,
2011-06-19, 00:45:05,VALID,917.329,VALID,0,VALID,96.4515,VALID,0,VALID,19.8393,VALID,315,VALID,0.517187,
2011-06-19, 00:46:05,VALID,917.307,VALID,0,VALID,96.5887,VALID,0,VALID,19.9173,VALID,315,VALID,0.663281,
2011-06-19, 00:47:05,VALID,917.338,VALID,0,VALID,96.6192,VALID,0,VALID,19.9368,VALID,315,VALID,0.324609,
2011-06-19, 00:48:05,VALID,917.351,VALID,0,VALID,96.5048,VALID,0,VALID,19.8978,VALID,315,VALID,0.472266,
2011-06-19, 00:49:05,VALID,917.369,VALID,0,VALID,96.4896,VALID,0,VALID,19.8783,VALID,315,VALID,0.439063,
2011-06-19, 00:50:05,VALID,917.361,VALID,0,VALID,96.6268,VALID,0,VALID,19.8783,VALID,315,VALID,0.630859,
2011-06-19, 00:51:05,VALID,917.325,VALID,0,VALID,96.5429,VALID,0,VALID,19.8783,VALID,315,VALID,0.782812,
2011-06-19, 00:52:05,VALID,917.326,VALID,0,VALID,96.5124,VALID,0,VALID,19.8393,VALID,315,VALID,0.811719,
2011-06-19, 00:53:05,VALID,917.289,VALID,0,VALID,96.5887,VALID,0,VALID,19.8198,VALID,11,VALID,1.06953,
2011-06-19, 00:54:05,VALID,917.3,VALID,0,VALID,96.6573,VALID,0,VALID,19.8198,VALID,11,VALID,0.9375,
2011-06-19, 00:55:05,VALID,917.286,VALID,0,VALID,96.6344,VALID,0,VALID,19.8393,VALID,11,VALID,0.546094,
2011-06-19, 00:56:05,VALID,917.26,VALID,0,VALID,96.6573,VALID,0,VALID,19.8588,VALID,11,VALID,0.449219,
2011-06-19, 00:57:05,VALID,917.263,VALID,0,VALID,96.6649,VALID,0,VALID,19.8588,VALID,11,VALID,0.133203,
2011-06-19, 00:58:05,VALID,917.257,VALID,0,VALID,96.6573,VALID,0,VALID,19.7808,VALID,11,VALID,0.226953,
2011-06-19, 00:59:05,VALID,917.22,VALID,0,VALID,96.6268,VALID,0,VALID,19.7208,VALID,11,VALID,0.125391,
2011-06-19, 01:00:05,VALID,917.229,VALID,0,VALID,96.6268,VALID,0.107441,VALID,19.7208,VALID,11,VALID,0,
2011-06-19, 01:01:05,VALID,917.226,VALID,0,VALID,96.642,VALID,0,VALID,19.7013,VALID,11,VALID,0,
2011-06-19, 01:02:05,VALID,917.226,VALID,0,VALID,96.6344,VALID,0,VALID,19.6833,VALID,11,VALID,0,
2011-06-19, 01:03:05,VALID,917.197,VALID,0,VALID,96.6192,VALID,0,VALID,19.6428,VALID,11,VALID,0,
2011-06-19, 01:04:05,VALID,917.162,VALID,0,VALID,96.6344,VALID,0,VALID,19.6443,VALID,11,VALID,0,
2011-06-19, 01:05:05,VALID,917.135,VALID,0,VALID,96.6344,VALID,0,VALID,19.6443,VALID,11,VALID,0.232422,
2011-06-19, 01:06:05,VALID,917.12,VALID,0,VALID,96.6268,VALID,0,VALID,19.6443,VALID,11,VALID,0.158594,
2011-06-19, 01:07:05,VALID,917.103,VALID,0,VALID,96.642,VALID,0,VALID,19.6443,VALID,11,VALID,0.161328,
2011-06-19, 01:08:05,VALID,917.1,VALID,0,VALID,96.6573,VALID,0,VALID,19.6248,VALID,11,VALID,0.10625,
2011-06-19, 01:09:05,VALID,917.056,VALID,0,VALID,96.7107,VALID,0,VALID,19.6833,VALID,11,VALID,0.000390625,
2011-06-19, 01:10:05,VALID,917.078,VALID,0,VALID,96.7107,VALID,0,VALID,19.6833,VALID,11,VALID,0.186719,
2011-06-19, 01:11:05,VALID,917.036,VALID,0,VALID,96.7107,VALID,0,VALID,19.6638,VALID,11,VALID,0.211719,
2011-06-19, 01:12:05,VALID,917.035,VALID,0,VALID,96.6497,VALID,0,VALID,19.6053,VALID,11,VALID,0.317187,
2011-06-19, 01:13:05,VALID,916.999,VALID,0,VALID,96.4743,VALID,0,VALID,19.5468,VALID,11,VALID,0.458984,
2011-06-19, 01:14:05,VALID,917.012,VALID,0,VALID,96.3371,VALID,0,VALID,19.4493,VALID,11,VALID,0.446094,
2011-06-19, 01:15:05,VALID,917.033,VALID,0,VALID,96.3371,VALID,0,VALID,19.3908,VALID,11,VALID,0.415625,
2011-06-19, 01:16:05,VALID,917.053,VALID,0,VALID,96.7107,VALID,0,VALID,19.4298,VALID,11,VALID,0.400391,
2011-06-19, 01:17:05,VALID,917.065,VALID,0,VALID,96.7411,VALID,0,VALID,19.4688,VALID,11,VALID,0.363672,
2011-06-19, 01:18:05,VALID,917.074,VALID,0,VALID,96.7259,VALID,0,VALID,19.5078,VALID,11,VALID,0,
2011-06-19, 01:19:05,VALID,917.045,VALID,0,VALID,96.7716,VALID,0,VALID,19.5663,VALID,11,VALID,0,
2011-06-19, 01:20:05,VALID,917.023,VALID,0,VALID,96.8098,VALID,0,VALID,19.6248,VALID,11,VALID,0.0195313,
2011-06-19, 01:21:05,VALID,916.989,VALID,0,VALID,96.7793,VALID,0,VALID,19.6053,VALID,11,VALID,0,
2011-06-19, 01:22:05,VALID,916.936,VALID,0,VALID,96.7335,VALID,0,VALID,19.5078,VALID,11,VALID,0,
2011-06-19, 01:23:05,VALID,916.9,VALID,0,VALID,96.7793,VALID,0,VALID,19.5858,VALID,11,VALID,0,
2011-06-19, 01:24:05,VALID,916.865,VALID,0,VALID,96.7945,VALID,0,VALID,19.6263,VALID,11,VALID,0,
2011-06-19, 01:25:05,VALID,916.883,VALID,0,VALID,96.825,VALID,0,VALID,19.6248,VALID,11,VALID,0,
2011-06-19, 01:26:05,VALID,916.874,VALID,0,VALID,96.7945,VALID,0,VALID,19.6443,VALID,11,VALID,0,
2011-06-19, 01:27:05,VALID,916.862,VALID,0,VALID,96.8098,VALID,0,VALID,19.6638,VALID,11,VALID,0.0335938,
2011-06-19, 01:28:05,VALID,916.882,VALID,0,VALID,96.8021,VALID,0,VALID,19.6653,VALID,11,VALID,0.210547,
2011-06-19, 01:29:05,VALID,916.863,VALID,0,VALID,96.7945,VALID,0,VALID,19.6233,VALID,11,VALID,0.259766,
2011-06-19, 01:30:05,VALID,916.882,VALID,0,VALID,96.7716,VALID,0,VALID,19.6038,VALID,11,VALID,0.333594,
2011-06-19, 01:31:05,VALID,916.894,VALID,0,VALID,96.7564,VALID,0,VALID,19.6038,VALID,11,VALID,0.417969,
2011-06-19, 01:32:05,VALID,916.889,VALID,0,VALID,96.7793,VALID,0,VALID,19.6038,VALID,11,VALID,0.301172,
2011-06-19, 01:33:05,VALID,916.865,VALID,0,VALID,96.8098,VALID,0.107441,VALID,19.6818,VALID,11,VALID,0.0851562,
2011-06-19, 01:34:05,VALID,916.852,VALID,0,VALID,96.825,VALID,0,VALID,19.7208,VALID,11,VALID,0,
2011-06-19, 01:35:05,VALID,916.801,VALID,0,VALID,96.825,VALID,0,VALID,19.7013,VALID,11,VALID,0.130469,
2011-06-19, 01:36:05,VALID,916.796,VALID,0,VALID,96.8326,VALID,0,VALID,19.7418,VALID,11,VALID,0.258594,
2011-06-19, 01:37:05,VALID,916.727,VALID,0,VALID,96.8174,VALID,0,VALID,19.6623,VALID,11,VALID,0.436328,
2011-06-19, 01:38:05,VALID,916.73,VALID,0,VALID,96.825,VALID,0,VALID,19.6638,VALID,11,VALID,0.43125,
2011-06-19, 01:39:05,VALID,916.74,VALID,0,VALID,96.825,VALID,0,VALID,19.6623,VALID,11,VALID,0.371875,
2011-06-19, 01:40:05,VALID,916.716,VALID,0,VALID,96.825,VALID,0,VALID,19.6248,VALID,11,VALID,0.415625,
2011-06-19, 01:41:05,VALID,916.705,VALID,0,VALID,96.7945,VALID,0,VALID,19.5648,VALID,11,VALID,0.553906,
2011-06-19, 01:42:05,VALID,916.698,VALID,0,VALID,96.8174,VALID,0,VALID,19.5663,VALID,11,VALID,0.501172,
2011-06-19, 01:43:05,VALID,916.689,VALID,0,VALID,96.8326,VALID,0,VALID,19.5663,VALID,11,VALID,0.595703,
2011-06-19, 01:44:05,VALID,916.677,VALID,0,VALID,96.8403,VALID,0,VALID,19.5453,VALID,11,VALID,0.54375,
2011-06-19, 01:45:05,VALID,916.648,VALID,0,VALID,96.8707,VALID,0,VALID,19.5453,VALID,11,VALID,0.342578,
2011-06-19, 01:46:05,VALID,916.669,VALID,0,VALID,96.886,VALID,0,VALID,19.5468,VALID,11,VALID,0.253516,
2011-06-19, 01:47:05,VALID,916.643,VALID,0,VALID,96.8631,VALID,0,VALID,19.5063,VALID,11,VALID,0.190625,
2011-06-19, 01:48:05,VALID,916.608,VALID,0,VALID,96.886,VALID,0,VALID,19.5078,VALID,11,VALID,0.119531,
2011-06-19, 01:49:05,VALID,916.603,VALID,0,VALID,96.8936,VALID,0.107441,VALID,19.5078,VALID,11,VALID,0,
2011-06-19, 01:50:05,VALID,916.535,VALID,0,VALID,96.8936,VALID,0,VALID,19.4868,VALID,11,VALID,0,
2011-06-19, 01:51:05,VALID,916.543,VALID,0,VALID,96.9012,VALID,0.107441,VALID,19.4688,VALID,11,VALID,0.164844,
2011-06-19, 01:52:05,VALID,916.55,VALID,0,VALID,96.8936,VALID,0,VALID,19.3893,VALID,11,VALID,0.326562,
2011-06-19, 01:53:05,VALID,916.568,VALID,0,VALID,96.8936,VALID,0,VALID,19.3503,VALID,11,VALID,0.267969,
2011-06-19, 01:54:05,VALID,916.562,VALID,0,VALID,96.8936,VALID,0.107441,VALID,19.3713,VALID,11,VALID,0.355469,
2011-06-19, 01:55:05,VALID,916.543,VALID,0,VALID,96.9012,VALID,0,VALID,19.3908,VALID,11,VALID,0.400781,
2011-06-19, 01:56:05,VALID,916.53,VALID,0,VALID,96.9012,VALID,0,VALID,19.3713,VALID,11,VALID,0.467187,
2011-06-19, 01:57:05,VALID,916.569,VALID,0,VALID,96.8707,VALID,0,VALID,19.2738,VALID,11,VALID,0.334375,
2011-06-19, 01:58:05,VALID,916.562,VALID,0,VALID,96.886,VALID,0,VALID,19.2723,VALID,11,VALID,0.166016,
2011-06-19, 01:59:05,VALID,916.599,VALID,0,VALID,96.9165,VALID,0,VALID,19.2918,VALID,11,VALID,0,
2011-06-19, 02:00:05,VALID,916.549,VALID,0,VALID,96.9165,VALID,0.107441,VALID,19.2933,VALID,11,VALID,0,
2011-06-19, 02:01:05,VALID,916.567,VALID,0,VALID,96.9241,VALID,0,VALID,19.2139,VALID,11,VALID,0,
2011-06-19, 02:02:05,VALID,916.56,VALID,0,VALID,96.8936,VALID,0,VALID,19.2153,VALID,11,VALID,0,
2011-06-19, 02:03:05,VALID,916.554,VALID,0,VALID,96.9012,VALID,0,VALID,19.1944,VALID,11,VALID,0,
2011-06-19, 02:04:05,VALID,916.584,VALID,0,VALID,96.9089,VALID,0.107441,VALID,19.1958,VALID,11,VALID,0,
2011-06-19, 02:05:05,VALID,916.581,VALID,0,VALID,96.9012,VALID,0,VALID,19.1749,VALID,11,VALID,0,
2011-06-19, 02:06:05,VALID,916.536,VALID,0,VALID,96.9012,VALID,0,VALID,19.1958,VALID,11,VALID,0,
2011-06-19, 02:07:05,VALID,916.516,VALID,0,VALID,96.9012,VALID,0,VALID,19.1749,VALID,11,VALID,0,
2011-06-19, 02:08:05,VALID,916.517,VALID,0,VALID,96.9317,VALID,0.107441,VALID,19.1944,VALID,11,VALID,0,
2011-06-19, 02:09:05,VALID,916.501,VALID,0,VALID,96.8784,VALID,0,VALID,19.1373,VALID,11,VALID,0.372656,
2011-06-19, 02:10:05,VALID,916.488,VALID,0,VALID,96.9165,VALID,0,VALID,19.1359,VALID,11,VALID,0.433203,
2011-06-19, 02:11:05,VALID,916.457,VALID,0,VALID,96.9241,VALID,0,VALID,19.1958,VALID,11,VALID,0.458203,
2011-06-19, 02:12:05,VALID,916.475,VALID,0,VALID,96.9394,VALID,0.107441,VALID,19.2153,VALID,11,VALID,0.288672,
2011-06-19, 02:13:05,VALID,916.472,VALID,0,VALID,96.9698,VALID,0,VALID,19.1763,VALID,11,VALID,0.145313,
2011-06-19, 02:14:05,VALID,916.504,VALID,0,VALID,96.947,VALID,0,VALID,19.1388,VALID,11,VALID,0.00195313,
2011-06-19, 02:15:05,VALID,916.544,VALID,0,VALID,96.9317,VALID,0,VALID,19.0413,VALID,11,VALID,0.398828,
2011-06-19, 02:16:05,VALID,916.541,VALID,0,VALID,96.886,VALID,0,VALID,18.8839,VALID,11,VALID,0.662109,
2011-06-19, 02:17:05,VALID,916.518,VALID,0,VALID,96.7411,VALID,0,VALID,18.8254,VALID,11,VALID,0.412891,
2011-06-19, 02:18:05,VALID,916.509,VALID,0,VALID,96.8021,VALID,0,VALID,18.8059,VALID,11,VALID,0.175,
2011-06-19, 02:19:05,VALID,916.482,VALID,0,VALID,96.6802,VALID,0,VALID,18.7279,VALID,11,VALID,0,
2011-06-19, 02:20:05,VALID,916.466,VALID,0,VALID,96.5963,VALID,0,VALID,18.6708,VALID,11,VALID,0.0105469,
2011-06-19, 02:21:05,VALID,916.427,VALID,0,VALID,96.2533,VALID,0,VALID,18.4745,VALID,11,VALID,0.419922,
2011-06-19, 02:22:04,VALID,916.429,VALID,0,VALID,96.6268,VALID,0,VALID,18.416,VALID,11,VALID,0.612109,
2011-06-19, 02:23:04,VALID,916.416,VALID,0,VALID,96.947,VALID,0,VALID,18.5734,VALID,11,VALID,0.316797,
2011-06-19, 02:24:04,VALID,916.415,VALID,0,VALID,96.9851,VALID,0,VALID,18.6513,VALID,11,VALID,0,
2011-06-19, 02:25:04,VALID,916.402,VALID,0,VALID,97.0003,VALID,0,VALID,18.6304,VALID,11,VALID,0,
2011-06-19, 02:26:04,VALID,916.398,VALID,0,VALID,97.0003,VALID,0,VALID,18.6109,VALID,11,VALID,0,
2011-06-19, 02:27:04,VALID,916.412,VALID,0,VALID,96.9698,VALID,0,VALID,18.6124,VALID,11,VALID,0.344922,
2011-06-19, 02:28:04,VALID,916.405,VALID,0,VALID,96.9927,VALID,0,VALID,18.6499,VALID,11,VALID,0.402734,
2011-06-19, 02:29:04,VALID,916.382,VALID,0,VALID,97.0232,VALID,0,VALID,18.6499,VALID,11,VALID,0.520703,
2011-06-19, 02:30:04,VALID,916.388,VALID,0,VALID,97.0385,VALID,0,VALID,18.7084,VALID,11,VALID,0.562109,
2011-06-19, 02:31:04,VALID,916.365,VALID,0,VALID,97.0613,VALID,0,VALID,18.7878,VALID,11,VALID,0.850391,
2011-06-19, 02:32:04,VALID,916.359,VALID,0,VALID,97.0918,VALID,0,VALID,18.8644,VALID,11,VALID,0.615625,
2011-06-19, 02:33:04,VALID,916.358,VALID,0,VALID,97.0842,VALID,0.107441,VALID,18.8449,VALID,11,VALID,0.426172,
2011-06-19, 02:34:04,VALID,916.366,VALID,0,VALID,97.0994,VALID,0,VALID,18.8449,VALID,11,VALID,0.325391,
2011-06-19, 02:35:04,VALID,916.353,VALID,0,VALID,97.1223,VALID,0,VALID,18.9034,VALID,11,VALID,0.322266,
2011-06-19, 02:36:04,VALID,916.298,VALID,0,VALID,97.1223,VALID,0,VALID,18.9409,VALID,11,VALID,0.3375,
2011-06-19, 02:37:04,VALID,916.306,VALID,0,VALID,97.1299,VALID,0,VALID,18.9214,VALID,11,VALID,0.4375,
2011-06-19, 02:38:04,VALID,916.251,VALID,0,VALID,97.1147,VALID,0,VALID,18.9424,VALID,11,VALID,0.481641,
2011-06-19, 02:39:04,VALID,916.252,VALID,0,VALID,97.0613,VALID,0.107441,VALID,18.8254,VALID,11,VALID,0.483203,
2011-06-19, 02:40:04,VALID,916.24,VALID,0,VALID,97.0842,VALID,0,VALID,18.746,VALID,11,VALID,0.391406,
2011-06-19, 02:41:04,VALID,916.266,VALID,0,VALID,97.0613,VALID,0,VALID,18.7084,VALID,11,VALID,0.280469,
2011-06-19, 02:42:04,VALID,916.31,VALID,0,VALID,97.0766,VALID,0.107441,VALID,18.668,VALID,11,VALID,0.100781,
2011-06-19, 02:43:04,VALID,916.312,VALID,0,VALID,97.0918,VALID,0,VALID,18.6694,VALID,11,VALID,0,
2011-06-19, 02:44:04,VALID,916.31,VALID,0,VALID,97.0918,VALID,0,VALID,18.6109,VALID,11,VALID,0,
2011-06-19, 02:45:04,VALID,916.329,VALID,0,VALID,97.0537,VALID,0,VALID,18.5539,VALID,11,VALID,0.219141,
2011-06-19, 02:46:04,VALID,916.315,VALID,0,VALID,97.0308,VALID,0,VALID,18.416,VALID,11,VALID,0.287109,
2011-06-19, 02:47:04,VALID,916.298,VALID,0,VALID,97.0842,VALID,0,VALID,18.5344,VALID,11,VALID,0.232812,
2011-06-19, 02:48:04,VALID,916.254,VALID,0,VALID,97.1147,VALID,0,VALID,18.5929,VALID,11,VALID,0.2875,
2011-06-19, 02:49:04,VALID,916.205,VALID,0,VALID,97.1604,VALID,0,VALID,18.6109,VALID,11,VALID,0.447266,
2011-06-19, 02:50:04,VALID,916.177,VALID,0,VALID,97.1757,VALID,0,VALID,18.6319,VALID,11,VALID,0.55,
2011-06-19, 02:51:04,VALID,916.161,VALID,0,VALID,97.1757,VALID,0,VALID,18.572,VALID,11,VALID,0.510156,
2011-06-19, 02:52:04,VALID,916.159,VALID,0,VALID,97.1986,VALID,0,VALID,18.6903,VALID,11,VALID,0.414063,
2011-06-19, 02:53:04,VALID,916.172,VALID,0,VALID,97.2062,VALID,0,VALID,18.7098,VALID,11,VALID,0.208203,
2011-06-19, 02:54:04,VALID,916.145,VALID,0,VALID,97.2062,VALID,0,VALID,18.6903,VALID,11,VALID,0.23125,
2011-06-19, 02:55:04,VALID,916.092,VALID,0,VALID,97.2062,VALID,0,VALID,18.6708,VALID,11,VALID,0.504687,
2011-06-19, 02:56:04,VALID,916.058,VALID,0,VALID,97.0918,VALID,0,VALID,18.4174,VALID,11,VALID,0.691797,
2011-06-19, 02:57:04,VALID,916.011,VALID,0,VALID,97.0918,VALID,0,VALID,18.3199,VALID,11,VALID,0.999219,
2011-06-19, 02:58:04,VALID,916.028,VALID,0,VALID,97.1757,VALID,0,VALID,18.4759,VALID,11,VALID,0.8625,
2011-06-19, 02:59:04,VALID,916.016,VALID,0,VALID,97.1986,VALID,0,VALID,18.5525,VALID,11,VALID,0.546094,
2011-06-19, 03:00:04,VALID,915.982,VALID,0,VALID,97.2138,VALID,0,VALID,18.6109,VALID,11,VALID,0.378516,
2011-06-19, 03:01:04,VALID,916.01,VALID,0,VALID,97.2519,VALID,0,VALID,18.6109,VALID,11,VALID,0.416406,
2011-06-19, 03:02:04,VALID,916.014,VALID,0,VALID,97.2519,VALID,0.107441,VALID,18.5914,VALID,11,VALID,0.121484,
2011-06-19, 03:03:04,VALID,916.023,VALID,0,VALID,97.2519,VALID,0,VALID,18.572,VALID,11,VALID,0,
2011-06-19, 03:04:04,VALID,916.012,VALID,0,VALID,97.2443,VALID,0,VALID,18.5121,VALID,11,VALID,0,
2011-06-19, 03:05:04,VALID,915.986,VALID,0,VALID,97.2367,VALID,0,VALID,18.494,VALID,11,VALID,0,
2011-06-19, 03:06:04,VALID,915.944,VALID,0,VALID,97.2214,VALID,0,VALID,18.4146,VALID,11,VALID,0,
2011-06-19, 03:07:04,VALID,915.962,VALID,0,VALID,97.229,VALID,0.107441,VALID,18.3756,VALID,11,VALID,0,
2011-06-19, 03:08:04,VALID,915.899,VALID,0,VALID,97.2367,VALID,0,VALID,18.3756,VALID,11,VALID,0,
2011-06-19, 03:09:04,VALID,915.892,VALID,0,VALID,97.2367,VALID,0.107441,VALID,18.2977,VALID,11,VALID,0,
2011-06-19, 03:10:04,VALID,915.909,VALID,0,VALID,97.229,VALID,0,VALID,18.2587,VALID,11,VALID,0.0203125,
2011-06-19, 03:11:04,VALID,915.879,VALID,0,VALID,97.2367,VALID,0,VALID,18.416,VALID,11,VALID,0.657031,
2011-06-19, 03:12:04,VALID,915.91,VALID,0,VALID,97.2748,VALID,0,VALID,18.455,VALID,11,VALID,0.45625,
2011-06-19, 03:13:04,VALID,915.89,VALID,0,VALID,97.229,VALID,0,VALID,18.3172,VALID,11,VALID,0,
2011-06-19, 03:14:04,VALID,915.898,VALID,0,VALID,97.2214,VALID,0,VALID,18.1626,VALID,11,VALID,0.188672,
2011-06-19, 03:15:04,VALID,915.889,VALID,0,VALID,97.2062,VALID,0,VALID,18.1445,VALID,11,VALID,0.174609,
2011-06-19, 03:16:04,VALID,915.927,VALID,0,VALID,97.2138,VALID,0,VALID,18.1055,VALID,11,VALID,0,
2011-06-19, 03:17:04,VALID,915.914,VALID,0,VALID,97.2519,VALID,0,VALID,18.2615,VALID,11,VALID,0.631641,
2011-06-19, 03:18:04,VALID,915.904,VALID,0,VALID,97.2748,VALID,0,VALID,18.3784,VALID,11,VALID,0.685156,
2011-06-19, 03:19:04,VALID,915.911,VALID,0,VALID,97.2977,VALID,0,VALID,18.3979,VALID,11,VALID,0.696484,
2011-06-19, 03:20:04,VALID,915.906,VALID,0,VALID,97.3205,VALID,0,VALID,18.4564,VALID,11,VALID,0.922266,
2011-06-19, 03:21:04,VALID,915.924,VALID,0,VALID,97.3281,VALID,0,VALID,18.4369,VALID,11,VALID,1.07109,
2011-06-19, 03:22:04,VALID,915.911,VALID,0,VALID,97.3434,VALID,0,VALID,18.3394,VALID,11,VALID,0.917188,
2011-06-19, 03:23:04,VALID,915.898,VALID,0,VALID,97.3358,VALID,0,VALID,18.3394,VALID,11,VALID,0.997656,
2011-06-19, 03:24:04,VALID,915.817,VALID,0,VALID,97.3281,VALID,0,VALID,18.3589,VALID,11,VALID,0.764453,
2011-06-19, 03:25:04,VALID,915.817,VALID,0,VALID,97.351,VALID,0,VALID,18.3589,VALID,11,VALID,0.596094,
2011-06-19, 03:26:04,VALID,915.785,VALID,0,VALID,97.3586,VALID,0,VALID,18.3394,VALID,11,VALID,0.584375,
2011-06-19, 03:27:04,VALID,915.765,VALID,0,VALID,97.3663,VALID,0,VALID,18.4369,VALID,11,VALID,0.752734,
2011-06-19, 03:28:04,VALID,915.728,VALID,0,VALID,97.3663,VALID,0,VALID,18.4355,VALID,11,VALID,0.69375,
2011-06-19, 03:29:04,VALID,915.717,VALID,0,VALID,97.3739,VALID,0,VALID,18.494,VALID,11,VALID,0.756641,
2011-06-19, 03:30:04,VALID,915.695,VALID,0,VALID,97.3739,VALID,0,VALID,18.5525,VALID,11,VALID,0.775,
2011-06-19, 03:31:04,VALID,915.69,VALID,0,VALID,97.3968,VALID,0,VALID,18.5914,VALID,11,VALID,0.735156,
2011-06-19, 03:32:04,VALID,915.665,VALID,0,VALID,97.4044,VALID,0,VALID,18.6109,VALID,11,VALID,0.783984,
2011-06-19, 03:33:04,VALID,915.687,VALID,0,VALID,97.4044,VALID,0,VALID,18.6109,VALID,11,VALID,0.725391,
2011-06-19, 03:34:04,VALID,915.749,VALID,0,VALID,97.3815,VALID,0,VALID,18.5914,VALID,11,VALID,0.727734,
2011-06-19, 03:35:04,VALID,915.762,VALID,0,VALID,97.3968,VALID,0,VALID,18.572,VALID,11,VALID,0.66875,
2011-06-19, 03:36:04,VALID,915.762,VALID,0,VALID,97.3968,VALID,0,VALID,18.5525,VALID,11,VALID,0.54375,
2011-06-19, 03:37:04,VALID,915.763,VALID,0,VALID,97.3968,VALID,0,VALID,18.5121,VALID,11,VALID,0.730859,
2011-06-19, 03:38:04,VALID,915.726,VALID,0,VALID,97.412,VALID,0.107441,VALID,18.572,VALID,11,VALID,0.701172,
2011-06-19, 03:39:04,VALID,915.723,VALID,0,VALID,97.3891,VALID,0,VALID,18.5135,VALID,11,VALID,0.409375,
2011-06-19, 03:40:04,VALID,915.699,VALID,0,VALID,97.3968,VALID,0,VALID,18.5135,VALID,11,VALID,0.358203,
2011-06-19, 03:41:04,VALID,915.711,VALID,0,VALID,97.3891,VALID,0,VALID,18.533,VALID,11,VALID,0.040625,
2011-06-19, 03:42:04,VALID,915.72,VALID,0,VALID,97.4044,VALID,0.107441,VALID,18.572,VALID,11,VALID,0,
2011-06-19, 03:43:04,VALID,915.761,VALID,0,VALID,97.4044,VALID,0,VALID,18.6109,VALID,11,VALID,0.128906,
2011-06-19, 03:44:04,VALID,915.761,VALID,0,VALID,97.412,VALID,0,VALID,18.533,VALID,11,VALID,0.386719,
2011-06-19, 03:45:04,VALID,915.768,VALID,0,VALID,97.4273,VALID,0,VALID,18.6513,VALID,11,VALID,0.410156,
2011-06-19, 03:46:04,VALID,915.755,VALID,0,VALID,97.4349,VALID,0,VALID,18.7683,VALID,11,VALID,0.48125,
2011-06-19, 03:47:04,VALID,915.741,VALID,0,VALID,97.412,VALID,0,VALID,18.8463,VALID,11,VALID,0.346094,
2011-06-19, 03:48:04,VALID,915.725,VALID,0,VALID,97.4577,VALID,0,VALID,18.8658,VALID,11,VALID,0.233203,